Time,TemperatureF,DewpointF,PressureIn,WindDirection,WindDirectionDegrees,WindSpeedMPH,WindSpeedGustMPH,Humidity,HourlyPrecipIn,Conditions,Clouds,dailyrainin,SoftwareType,DateUTC
2013-04-02 00:02:00,25.0,25.0,-100.00,NW,305,4.0,7.0,99,0.00,,,-99.99,,2013-04-02 05:02:00,
2013-04-02 00:12:00,25.0,25.0,-100.00,NW,305,4.0,7.0,99,0.00,,,-99.99,,2013-04-02 05:12:00,
2013-04-02 00:22:00,24.0,24.0,-100.00,WNW,290,2.0,4.0,99,0.00,,,-99.99,,2013-04-02 05:22:00,
2013-04-02 00:32:00,22.0,22.0,-100.00,WSW,250,1.0,2.0,99,0.00,,,-99.99,,2013-04-02 05:32:00,
2013-04-02 00:42:00,23.0,23.0,-100.00,SW,235,1.0,2.0,99,0.00,,,-99.99,,2013-04-02 05:42:00,
2013-04-02 00:52:00,23.0,23.0,-100.00,WNW,290,1.0,3.0,99,0.00,,,-99.99,,2013-04-02 05:52:00,
2013-04-02 01:02:00,24.0,24.0,-100.00,NW,305,6.0,6.0,99,0.00,,,-99.99,,2013-04-02 06:02:00,
2013-04-02 01:12:00,25.0,25.0,-100.00,NW,315,6.0,7.0,99,0.00,,,-99.99,,2013-04-02 06:12:00,
2013-04-02 01:22:00,25.0,25.0,-100.00,NW,315,6.0,7.0,99,0.00,,,-99.99,,2013-04-02 06:22:00,
2013-04-02 01:32:00,26.0,26.0,-100.00,NW,325,7.0,9.0,99,0.00,,,-99.99,,2013-04-02 06:32:00,
2013-04-02 01:42:00,25.0,25.0,-100.00,NW,310,6.0,9.0,99,0.00,,,-99.99,,2013-04-02 06:42:00,
2013-04-02 01:52:00,24.0,24.0,-100.00,NW,310,5.0,6.0,99,0.00,,,-99.99,,2013-04-02 06:52:00,
2013-04-02 02:02:00,24.0,24.0,-100.00,NW,315,5.0,7.0,99,0.00,,,-99.99,,2013-04-02 07:02:00,
2013-04-02 02:12:00,24.0,24.0,-100.00,NW,310,4.0,6.0,99,0.00,,,-99.99,,2013-04-02 07:12:00,
2013-04-02 02:22:00,24.0,24.0,-100.00,NW,310,4.0,6.0,99,0.00,,,-99.99,,2013-04-02 07:22:00,
2013-04-02 02:32:00,24.0,24.0,-100.00,NW,310,4.0,6.0,99,0.00,,,-99.99,,2013-04-02 07:32:00,
2013-04-02 02:42:00,24.0,24.0,-100.00,NW,310,4.0,6.0,99,0.00,,,-99.99,,2013-04-02 07:42:00,
2013-04-02 02:52:00,23.0,23.0,-100.00,NW,310,3.0,-999.0,99,0.00,,,-99.99,,2013-04-02 07:52:00,
2013-04-02 03:02:00,24.0,24.0,-100.00,NW,305,4.0,4.0,99,0.00,,,-99.99,,2013-04-02 08:02:00,
2013-04-02 03:13:00,24.0,24.0,-100.00,NW,310,4.0,4.0,99,0.00,,,-99.99,,2013-04-02 08:13:00,
2013-04-02 03:22:00,24.0,24.0,-100.00,NW,305,4.0,4.0,99,0.00,,,-99.99,,2013-04-02 08:22:00,
2013-04-02 03:33:00,23.0,-99.9,-100.00,NW,315,5.0,6.0,-999,0.00,,,-99.99,,2013-04-02 08:33:00,
2013-04-02 03:42:00,23.0,23.0,-100.00,NW,320,5.0,6.0,99,0.00,,,-99.99,,2013-04-02 08:42:00,
2013-04-02 03:52:00,24.0,24.0,-100.00,NNW,335,5.0,6.0,99,0.00,,,-99.99,,2013-04-02 08:52:00,
2013-04-02 04:02:00,24.0,24.0,-100.00,NNW,335,5.0,6.0,99,0.00,,,-99.99,,2013-04-02 09:02:00,
2013-04-02 04:12:00,24.0,24.0,-100.00,NNW,330,4.0,5.0,99,0.00,,,-99.99,,2013-04-02 09:12:00,
2013-04-02 04:22:00,23.0,23.0,-100.00,NNW,340,4.0,5.0,99,0.00,,,-99.99,,2013-04-02 09:22:00,
2013-04-02 04:32:00,22.0,22.0,-100.00,NW,320,4.0,6.0,99,0.00,,,-99.99,,2013-04-02 09:32:00,
2013-04-02 04:43:00,22.0,22.0,-100.00,NW,315,4.0,5.0,99,0.00,,,-99.99,,2013-04-02 09:43:00,
2013-04-02 04:52:00,23.0,23.0,-100.00,NNW,340,4.0,4.0,99,0.00,,,-99.99,,2013-04-02 09:52:00,
2013-04-02 05:03:00,23.0,23.0,-100.00,NW,325,3.0,4.0,99,0.00,,,-99.99,,2013-04-02 10:03:00,
2013-04-02 05:13:00,20.0,20.0,-100.00,NW,315,0.0,3.0,99,0.00,,,-99.99,,2013-04-02 10:13:00,
2013-04-02 05:23:00,20.0,20.0,-100.00,NW,315,0.0,0.0,99,0.00,,,-99.99,,2013-04-02 10:23:00,
2013-04-02 05:33:00,19.0,19.0,-100.00,South,175,3.0,4.0,99,0.00,,,-99.99,,2013-04-02 10:33:00,
2013-04-02 05:42:00,19.0,19.0,-100.00,South,175,2.0,4.0,99,0.00,,,-99.99,,2013-04-02 10:42:00,
2013-04-02 05:52:00,20.0,20.0,-100.00,SSE,165,1.0,2.0,99,0.00,,,-99.99,,2013-04-02 10:52:00,
2013-04-02 06:02:00,20.0,20.0,-100.00,SSE,165,1.0,2.0,99,0.00,,,-99.99,,2013-04-02 11:02:00,
2013-04-02 06:12:00,19.0,19.0,-100.00,SSW,200,1.0,2.0,99,0.00,,,-99.99,,2013-04-02 11:12:00,
2013-04-02 06:22:00,19.0,19.0,-100.00,SSW,200,1.0,2.0,99,0.00,,,-99.99,,2013-04-02 11:22:00,
2013-04-02 06:33:00,21.0,21.0,-100.00,SW,215,0.0,0.0,99,0.00,,,-99.99,,2013-04-02 11:33:00,
2013-04-02 06:42:00,22.0,22.0,-100.00,NW,320,4.0,4.0,99,0.00,,,-99.99,,2013-04-02 11:42:00,
2013-04-02 06:52:00,21.0,21.0,-100.00,NW,320,4.0,6.0,99,0.00,,,-99.99,,2013-04-02 11:52:00,
2013-04-02 07:02:00,20.0,20.0,-100.00,WNW,295,2.0,4.0,99,0.00,,,-99.99,,2013-04-02 12:02:00,
2013-04-02 07:12:00,19.0,19.0,-100.00,SW,225,1.0,2.0,99,0.00,,,-99.99,,2013-04-02 12:12:00,
2013-04-02 07:22:00,20.0,20.0,-100.00,SE,140,0.0,1.0,99,0.00,,,-99.99,,2013-04-02 12:22:00,
2013-04-02 07:32:00,20.0,20.0,-100.00,SSW,210,0.0,1.0,99,0.00,,,-99.99,,2013-04-02 12:32:00,
2013-04-02 07:42:00,21.0,21.0,-100.00,SE,135,1.0,1.0,99,0.00,,,-99.99,,2013-04-02 12:42:00,
2013-04-02 07:53:00,23.0,-99.9,-100.00,SE,135,0.0,1.0,-999,0.00,,,-99.99,,2013-04-02 12:53:00,
2013-04-02 08:02:00,24.0,24.0,-100.00,East,100,0.0,2.0,99,0.00,,,-99.99,,2013-04-02 13:02:00,
2013-04-02 08:12:00,26.0,26.0,-100.00,WNW,295,1.0,4.0,99,0.00,,,-99.99,,2013-04-02 13:12:00,
2013-04-02 08:22:00,26.0,26.0,-100.00,NW,310,3.0,5.0,99,0.00,,,-99.99,,2013-04-02 13:22:00,
2013-04-02 08:33:00,26.0,26.0,-100.00,WNW,290,4.0,6.0,99,0.00,,,-99.99,,2013-04-02 13:33:00,
2013-04-02 08:42:00,27.0,27.0,-100.00,West,260,3.0,5.0,99,0.00,,,-99.99,,2013-04-02 13:42:00,
2013-04-02 08:52:00,28.0,27.0,-100.00,WNW,295,6.0,7.0,95,0.00,,,-99.99,,2013-04-02 13:52:00,
2013-04-02 09:02:00,28.0,27.0,-100.00,WNW,295,6.0,7.0,95,0.00,,,-99.99,,2013-04-02 14:02:00,
2013-04-02 09:12:00,29.0,26.0,-100.00,WNW,290,7.0,9.0,87,0.00,,,-99.99,,2013-04-02 14:12:00,
2013-04-02 09:23:00,30.0,24.0,-100.00,NW,325,7.0,9.0,78,0.00,,,-99.99,,2013-04-02 14:23:00,
2013-04-02 09:32:00,30.0,21.0,-100.00,NW,325,6.0,10.0,67,0.00,,,-99.99,,2013-04-02 14:32:00,
2013-04-02 09:42:00,31.0,22.0,-100.00,NW,325,8.0,10.0,69,0.00,,,-99.99,,2013-04-02 14:42:00,
2013-04-02 09:52:00,32.0,26.0,-100.00,West,280,5.0,11.0,78,0.00,,,-99.99,,2013-04-02 14:52:00,
2013-04-02 10:02:00,32.0,25.0,-100.00,West,280,4.0,8.0,74,0.00,,,-99.99,,2013-04-02 15:02:00,
2013-04-02 10:11:00,32.0,22.0,-100.00,West,280,5.0,9.0,65,0.00,,,-99.99,,2013-04-02 15:11:00,
2013-04-02 10:22:00,34.0,22.0,-100.00,WNW,290,5.0,12.0,62,0.00,,,-99.99,,2013-04-02 15:22:00,
2013-04-02 10:33:00,34.0,23.0,-100.00,NW,320,7.0,11.0,64,0.00,,,-99.99,,2013-04-02 15:33:00,
2013-04-02 10:43:00,34.0,24.0,-100.00,NW,315,7.0,11.0,63,0.00,,,-99.99,,2013-04-02 15:43:00,
2013-04-02 10:54:00,35.0,24.0,-100.00,NW,325,11.0,15.0,63,0.00,,,-99.99,,2013-04-02 15:54:00,
2013-04-02 11:03:00,35.0,24.0,-100.00,NW,305,12.0,18.0,63,0.00,,,-99.99,,2013-04-02 16:03:00,
2013-04-02 11:13:00,36.0,24.0,-100.00,NW,315,10.0,16.0,62,0.00,,,-99.99,,2013-04-02 16:13:00,
2013-04-02 11:24:00,35.0,23.0,-100.00,West,280,13.0,19.0,60,0.00,,,-99.99,,2013-04-02 16:24:00,
2013-04-02 11:35:00,36.0,25.0,-100.00,WNW,295,13.0,20.0,62,0.00,,,-99.99,,2013-04-02 16:35:00,
2013-04-02 11:43:00,37.0,26.0,-100.00,West,280,12.0,19.0,63,0.00,,,-99.99,,2013-04-02 16:43:00,
2013-04-02 11:52:00,37.0,23.0,-100.00,WNW,285,16.0,20.0,57,0.00,,,-99.99,,2013-04-02 16:52:00,
2013-04-02 12:05:00,36.0,23.0,-100.00,WNW,300,15.0,19.0,58,0.00,,,-99.99,,2013-04-02 17:05:00,
2013-04-02 12:13:00,36.0,23.0,-100.00,WNW,300,15.0,19.0,58,0.00,,,-99.99,,2013-04-02 17:13:00,
2013-04-02 12:24:00,37.0,24.0,-100.00,NW,315,9.0,19.0,58,0.00,,,-99.99,,2013-04-02 17:24:00,
2013-04-02 12:34:00,37.0,24.0,-100.00,West,280,14.0,21.0,56,0.00,,,-99.99,,2013-04-02 17:34:00,
2013-04-02 12:43:00,38.0,24.0,-100.00,WNW,290,12.0,21.0,57,0.00,,,-99.99,,2013-04-02 17:43:00,
2013-04-02 12:54:00,38.0,27.0,-100.00,NW,325,15.0,19.0,62,0.00,,,-99.99,,2013-04-02 17:54:00,
2013-04-02 13:03:00,39.0,24.0,-100.00,WNW,285,12.0,20.0,54,0.00,,,-99.99,,2013-04-02 18:03:00,
2013-04-02 13:12:00,38.0,25.0,-100.00,NW,320,13.0,19.0,58,0.00,,,-99.99,,2013-04-02 18:12:00,
2013-04-02 13:23:00,38.0,24.0,-100.00,WNW,300,16.0,26.0,55,0.00,,,-99.99,,2013-04-02 18:23:00,
2013-04-02 13:34:00,39.0,24.0,-100.00,WNW,285,12.0,23.0,54,0.00,,,-99.99,,2013-04-02 18:34:00,
2013-04-02 13:43:00,39.0,23.0,-100.00,WNW,295,18.0,22.0,53,0.00,,,-99.99,,2013-04-02 18:43:00,
2013-04-02 13:53:00,39.0,24.0,-100.00,NW,315,14.0,23.0,55,0.00,,,-99.99,,2013-04-02 18:53:00,
2013-04-02 14:03:00,40.0,23.0,-100.00,WNW,295,14.0,20.0,49,0.00,,,-99.99,,2013-04-02 19:03:00,
2013-04-02 14:13:00,39.0,24.0,-100.00,WNW,285,14.0,21.0,52,0.00,,,-99.99,,2013-04-02 19:13:00,
2013-04-02 14:22:00,39.0,22.0,-100.00,WNW,295,17.0,21.0,48,0.00,,,-99.99,,2013-04-02 19:22:00,
2013-04-02 14:33:00,39.0,23.0,-100.00,NW,315,13.0,24.0,51,0.00,,,-99.99,,2013-04-02 19:33:00,
2013-04-02 14:45:00,39.0,23.0,-100.00,NW,320,14.0,27.0,51,0.00,,,-99.99,,2013-04-02 19:45:00,
2013-04-02 14:53:00,40.0,23.0,-100.00,NW,320,17.0,24.0,49,0.00,,,-99.99,,2013-04-02 19:53:00,
2013-04-02 15:03:00,40.0,24.0,-100.00,NW,315,14.0,21.0,50,0.00,,,-99.99,,2013-04-02 20:03:00,
2013-04-02 15:13:00,40.0,24.0,-100.00,WNW,300,17.0,23.0,52,0.00,,,-99.99,,2013-04-02 20:13:00,
2013-04-02 15:22:00,41.0,24.0,-100.00,NW,305,16.0,25.0,51,0.00,,,-99.99,,2013-04-02 20:22:00,
2013-04-02 15:33:00,40.0,26.0,-100.00,NNW,330,15.0,23.0,58,0.00,,,-99.99,,2013-04-02 20:33:00,
2013-04-02 15:53:00,40.0,25.0,-100.00,NW,320,16.0,24.0,55,0.00,,,-99.99,,2013-04-02 20:53:00,
2013-04-02 16:04:00,42.0,27.0,-100.00,NW,320,16.0,29.0,54,0.00,,,-99.99,,2013-04-02 21:04:00,
2013-04-02 16:13:00,41.0,26.0,-100.00,NNW,330,15.0,24.0,55,0.00,,,-99.99,,2013-04-02 21:13:00,
2013-04-02 16:23:00,39.0,26.0,-100.00,NW,325,14.0,24.0,60,0.00,,,-99.99,,2013-04-02 21:23:00,
2013-04-02 16:34:00,40.0,26.0,-100.00,NW,320,19.0,23.0,56,0.00,,,-99.99,,2013-04-02 21:34:00,
2013-04-02 16:43:00,41.0,26.0,-100.00,NNW,330,18.0,22.0,55,0.00,,,-99.99,,2013-04-02 21:43:00,
2013-04-02 16:54:00,40.0,25.0,-100.00,NNW,330,17.0,22.0,54,0.00,,,-99.99,,2013-04-02 21:54:00,
2013-04-02 17:04:00,39.0,26.0,-100.00,NNW,335,16.0,21.0,57,0.00,,,-99.99,,2013-04-02 22:04:00,
2013-04-02 17:24:00,38.0,25.0,-100.00,NNW,335,16.0,20.0,58,0.00,,,-99.99,,2013-04-02 22:24:00,
2013-04-02 17:33:00,38.0,25.0,-100.00,NW,325,14.0,20.0,59,0.00,,,-99.99,,2013-04-02 22:33:00,
2013-04-02 17:43:00,40.0,25.0,-100.00,NW,315,15.0,19.0,54,0.00,,,-99.99,,2013-04-02 22:43:00,
2013-04-02 17:53:00,38.0,24.0,-100.00,NW,315,14.0,22.0,58,0.00,,,-99.99,,2013-04-02 22:53:00,
2013-04-02 18:02:00,38.0,25.0,-100.00,NNW,340,14.0,19.0,57,0.00,,,-99.99,,2013-04-02 23:02:00,
2013-04-02 18:13:00,39.0,25.0,-100.00,NW,320,17.0,20.0,57,0.00,,,-99.99,,2013-04-02 23:13:00,
2013-04-02 18:23:00,38.0,26.0,-100.00,NW,315,13.0,18.0,60,0.00,,,-99.99,,2013-04-02 23:23:00,
2013-04-02 18:34:00,38.0,25.0,-100.00,NNW,330,14.0,18.0,60,0.00,,,-99.99,,2013-04-02 23:34:00,
2013-04-02 18:42:00,38.0,26.0,-100.00,NNW,330,11.0,17.0,62,0.00,,,-99.99,,2013-04-02 23:42:00,
2013-04-02 18:52:00,38.0,24.0,-100.00,NNW,330,17.0,21.0,56,0.00,,,-99.99,,2013-04-02 23:52:00,
2013-04-02 19:03:00,37.0,25.0,-100.00,NW,325,11.0,19.0,61,0.00,,,-99.99,,2013-04-03 00:03:00,
2013-04-02 19:13:00,37.0,25.0,-100.00,NNW,345,10.0,14.0,62,0.00,,,-99.99,,2013-04-03 00:13:00,
2013-04-02 19:23:00,36.0,27.0,-100.00,NNW,340,9.0,13.0,67,0.00,,,-99.99,,2013-04-03 00:23:00,
2013-04-02 19:33:00,36.0,26.0,-100.00,NNW,345,9.0,12.0,68,0.00,,,-99.99,,2013-04-03 00:33:00,
2013-04-02 19:46:00,35.0,26.0,-100.00,NNW,340,9.0,14.0,68,0.00,,,-99.99,,2013-04-03 00:46:00,
2013-04-02 19:53:00,34.0,26.0,-100.00,NNW,340,7.0,11.0,71,0.00,,,-99.99,,2013-04-03 00:53:00,
2013-04-02 20:03:00,33.0,26.0,-100.00,NNW,335,7.0,9.0,73,0.00,,,-99.99,,2013-04-03 01:03:00,
2013-04-02 20:12:00,33.0,26.0,-100.00,NW,325,6.0,9.0,75,0.00,,,-99.99,,2013-04-03 01:12:00,
2013-04-02 20:22:00,32.0,26.0,-100.00,NNW,335,6.0,7.0,78,0.00,,,-99.99,,2013-04-03 01:22:00,
2013-04-02 20:33:00,31.0,26.0,-100.00,NW,320,2.0,6.0,79,0.00,,,-99.99,,2013-04-03 01:33:00,
2013-04-02 20:42:00,32.0,26.0,-100.00,NW,320,4.0,4.0,77,0.00,,,-99.99,,2013-04-03 01:42:00,
2013-04-02 20:52:00,32.0,26.0,-100.00,NNW,340,4.0,4.0,79,0.00,,,-99.99,,2013-04-03 01:52:00,
2013-04-02 21:03:00,31.0,26.0,-100.00,NNW,330,2.0,4.0,80,0.00,,,-99.99,,2013-04-03 02:03:00,
2013-04-02 21:13:00,31.0,26.0,-100.00,North,350,3.0,4.0,81,0.00,,,-99.99,,2013-04-03 02:13:00,
2013-04-02 21:23:00,31.0,26.0,-100.00,North,350,3.0,4.0,83,0.00,,,-99.99,,2013-04-03 02:23:00,
2013-04-02 21:33:00,30.0,26.0,-100.00,North,355,4.0,4.0,82,0.00,,,-99.99,,2013-04-03 02:33:00,
2013-04-02 21:43:00,31.0,26.0,-100.00,NNW,340,2.0,4.0,82,0.00,,,-99.99,,2013-04-03 02:43:00,
2013-04-02 21:52:00,30.0,26.0,-100.00,NNW,330,3.0,3.0,84,0.00,,,-99.99,,2013-04-03 02:52:00,
2013-04-02 22:04:00,28.0,25.0,-100.00,NNW,330,2.0,4.0,85,0.00,,,-99.99,,2013-04-03 03:04:00,
2013-04-02 22:13:00,26.0,24.0,-100.00,NW,310,0.0,2.0,91,0.00,,,-99.99,,2013-04-03 03:13:00,
2013-04-02 22:22:00,26.0,24.0,-100.00,NW,310,0.0,2.0,91,0.00,,,-99.99,,2013-04-03 03:22:00,
2013-04-02 22:37:00,26.0,24.0,-100.00,NW,310,0.0,2.0,91,0.00,,,-99.99,,2013-04-03 03:37:00,
2013-04-02 22:43:00,28.0,26.0,-100.00,NNE,20,3.0,4.0,92,0.00,,,-99.99,,2013-04-03 03:43:00,
2013-04-02 22:53:00,29.0,27.0,-100.00,North,355,3.0,4.0,90,0.00,,,-99.99,,2013-04-03 03:53:00,
2013-04-02 23:03:00,26.0,25.0,-100.00,WSW,250,1.0,3.0,97,0.00,,,-99.99,,2013-04-03 04:03:00,
2013-04-02 23:12:00,25.0,25.0,-100.00,WSW,250,1.0,2.0,99,0.00,,,-99.99,,2013-04-03 04:12:00,
2013-04-02 23:23:00,23.0,23.0,-100.00,WSW,250,0.0,2.0,99,0.00,,,-99.99,,2013-04-03 04:23:00,
2013-04-02 23:33:00,24.0,24.0,-100.00,WSW,250,0.0,0.0,99,0.00,,,-99.99,,2013-04-03 04:33:00,
2013-04-02 23:43:00,24.0,24.0,-100.00,WSW,250,0.0,0.0,99,0.00,,,-99.99,,2013-04-03 04:43:00,
2013-04-02 23:53:00,24.0,24.0,-100.00,WSW,250,0.0,0.0,99,0.00,,,-99.99,,2013-04-03 04:53:00,